Date,TemperatureHighF,TemperatureAvgF,TemperatureLowF,DewpointHighF,DewpointAvgF,DewpointLowF,HumidityHigh,HumidityAvg,HumidityLow,PressureMaxIn,PressureMinIn,WindSpeedMaxMPH,WindSpeedAvgMPH,GustSpeedMaxMPH,PrecipitationSumIn
2013-8-1,85,74,64,72,66,60,96,77,45,30.04,29.77,36,3,36,0.25
2013-8-2,84,74,66,70,66,60,92,77,59,29.95,29.78,26,3,27,0.00
2013-8-3,81,71,62,64,61,58,88,73,51,30.12,29.94,11,3,11,0.00
2013-8-4,75,68,61,67,61,56,88,78,63,30.12,29.98,15,3,15,0.00
2013-8-5,84,75,68,74,70,65,95,85,71,30.00,29.77,14,3,14,0.00
2013-8-6,87,78,68,77,72,66,97,82,65,29.85,29.72,17,2,17,0.00
2013-8-7,85,77,70,74,67,58,95,73,43,29.93,29.74,14,3,14,0.00
2013-8-8,79,70,63,67,64,60,92,81,59,29.97,29.89,10,1,10,0.00
2013-8-9,83,73,65,69,64,59,92,76,56,30.09,29.96,12,2,12,0.00
2013-8-10,81,71,59,64,60,56,90,70,48,30.16,30.03,15,3,15,0.00
2013-8-11,85,75,63,71,65,60,88,72,55,30.08,29.93,16,3,16,0.00
2013-8-12,85,76,69,72,67,62,93,74,49,30.00,29.92,13,2,13,0.01
2013-8-13,80,70,61,62,59,56,88,68,48,30.11,30.00,11,2,11,0.00
2013-8-14,76,67,57,62,58,54,90,73,52,30.16,30.03,13,2,13,0.01
2013-8-15,66,62,59,61,59,57,95,88,78,30.07,30.00,15,3,17,0.79
2013-8-16,74,66,60,60,59,57,92,79,58,30.15,30.06,12,2,12,0.00
2013-8-17,77,68,59,61,58,56,95,72,51,30.17,30.06,17,2,17,0.00
2013-8-18,78,68,56,64,60,55,96,77,57,30.12,30.01,18,3,18,0.00
2013-8-19,82,73,64,70,66,60,91,79,64,30.05,29.89,18,5,18,0.00
2013-8-20,87,77,68,72,69,65,91,76,59,29.94,29.86,22,6,22,0.00
2013-8-21,89,79,71,75,70,66,86,75,57,29.95,29.88,17,5,17,0.00
2013-8-22,84,76,71,73,70,67,90,81,61,30.03,29.91,8,2,11,0.00
2013-8-23,88,77,68,74,70,66,95,79,55,30.02,29.92,16,3,16,0.00
2013-8-24,88,79,72,76,71,68,89,77,63,30.02,29.95,24,7,24,0.00
2013-8-25,91,81,71,77,72,68,91,76,58,30.08,29.98,19,7,19,0.00
2013-8-26,93,83,75,75,72,70,85,71,52,30.03,29.89,19,6,19,0.00
2013-8-27,94,83,74,73,70,65,82,66,49,29.91,29.82,17,4,17,0.00
2013-8-28,92,81,72,73,68,61,78,64,37,29.93,29.86,13,3,13,0.00
2013-8-29,93,82,72,76,72,69,91,74,50,29.94,29.83,14,4,15,0.00
2013-8-30,99,85,74,77,71,67,80,64,38,29.84,29.72,10,2,10,0.00
2013-8-31,86,81,74,75,72,68,88,76,54,29.80,29.71,5,1,7,0.00